TimeCDT,TemperatureF,Dew PointF,Humidity,Sea Level PressureIn,VisibilityMPH,Wind Direction,Wind SpeedMPH,Gust SpeedMPH,PrecipitationIn,Events,Conditions,WindDirDegrees,DateUTC
12:51 AM,66.0,60.1,81,30.00,10.0,NNE,4.6,-,N/A,,Overcast,20,2013-05-11 05:51:00
1:51 AM,66.0,60.1,81,29.99,10.0,North,6.9,-,0.00,,Mostly Cloudy,10,2013-05-11 06:51:00
2:51 AM,66.0,60.1,81,30.02,10.0,North,6.9,-,N/A,,Mostly Cloudy,360,2013-05-11 07:51:00
3:51 AM,66.0,60.1,81,30.03,10.0,North,8.1,-,N/A,,Mostly Cloudy,360,2013-05-11 08:51:00
4:51 AM,64.9,59.0,81,30.02,10.0,North,4.6,-,N/A,,Overcast,360,2013-05-11 09:51:00
5:51 AM,64.0,59.0,84,29.99,10.0,North,6.9,-,N/A,,Clear,350,2013-05-11 10:51:00
6:51 AM,64.0,60.1,87,30.00,10.0,NNW,8.1,-,N/A,,Partly Cloudy,340,2013-05-11 11:51:00
7:51 AM,66.9,60.1,79,30.03,10.0,North,12.7,-,N/A,,Partly Cloudy,360,2013-05-11 12:51:00
8:51 AM,69.1,59.0,70,30.05,10.0,North,9.2,18.4,N/A,,Partly Cloudy,10,2013-05-11 13:51:00
9:51 AM,72.0,59.0,64,30.07,10.0,NNE,11.5,-,N/A,,Mostly Cloudy,30,2013-05-11 14:51:00
10:51 AM,77.0,60.1,56,30.05,10.0,NE,12.7,18.4,N/A,,Scattered Clouds,40,2013-05-11 15:51:00
11:51 AM,79.0,61.0,54,30.05,10.0,NNE,15.0,20.7,N/A,,Scattered Clouds,20,2013-05-11 16:51:00
12:51 PM,81.0,60.1,49,30.05,10.0,NE,10.4,21.9,N/A,,Scattered Clouds,40,2013-05-11 17:51:00
1:51 PM,81.0,59.0,47,30.05,10.0,NE,15.0,19.6,N/A,,Mostly Cloudy,40,2013-05-11 18:51:00
2:51 PM,79.0,57.0,47,30.04,10.0,NNE,12.7,18.4,N/A,,Mostly Cloudy,20,2013-05-11 19:51:00
3:51 PM,80.1,57.0,45,30.03,10.0,NNE,12.7,20.7,N/A,,Mostly Cloudy,30,2013-05-11 20:51:00
4:51 PM,80.1,55.9,43,30.02,10.0,NNE,11.5,24.2,N/A,,Mostly Cloudy,30,2013-05-11 21:51:00
5:51 PM,80.1,55.0,42,30.01,10.0,NNE,13.8,-,N/A,,Mostly Cloudy,30,2013-05-11 22:51:00
6:51 PM,80.1,54.0,40,30.02,10.0,NE,11.5,-,N/A,,Mostly Cloudy,40,2013-05-11 23:51:00
7:51 PM,77.0,53.1,43,30.04,10.0,NNE,6.9,-,N/A,,Mostly Cloudy,30,2013-05-12 00:51:00
8:51 PM,75.9,52.0,43,30.06,10.0,NNE,9.2,-,N/A,,Mostly Cloudy,20,2013-05-12 01:51:00
9:51 PM,73.9,52.0,46,30.08,10.0,NNE,6.9,-,N/A,,Mostly Cloudy,30,2013-05-12 02:51:00
10:51 PM,72.0,53.1,51,30.10,10.0,NE,5.8,-,N/A,,Mostly Cloudy,50,2013-05-12 03:51:00
11:51 PM,71.1,51.1,49,30.11,10.0,NNE,5.8,-,N/A,,Mostly Cloudy,30,2013-05-12 04:51:00